Weather History for Sidney-Richland, MT

Change the Weather History Date:

Tuesday, March 19, 2013

  Actual Average Record
Temperature  
Mean Temperature 12 °F -  
Max Temperature 19 °F 47 °F 71 °F (1991)
Min Temperature 6 °F 23 °F -16 °F (1965)
Degree Days  
Heating Degree Days 52    
Moisture  
Dew Point 6 °F    
Average Humidity 74    
Maximum Humidity 86    
Minimum Humidity 53    
Precipitation  
Precipitation 0.00 in - - ()
Sea Level Pressure  
Sea Level Pressure 30.27 in    
Wind  
Wind Speed 9 mph (NW)    
Max Wind Speed 20 mph    
Max Gust Speed 25 mph    
Visibility 10 miles    
Events      
Averages and records for this station are not official NWS values.
T = Trace of Precipitation, MM = Missing Value Source: NWS Daily Summary

Daily Weather History Graph

Daily Weather History Graph

Search for Another Location

Airport:

Trip Planner

Search our weather history database for the weather conditions in past years. The results will help you decide how hot, cold, wet, or windy it might be!

Date:

Astronomy

Mar. 19, 2013 Rise Set
Actual Time 7:01 AM MDT 7:08 PM MDT
Civil Twilight 6:30 AM MDT 7:39 PM MDT
Nautical Twilight 5:54 AM MDT 8:15 PM MDT
Astronomical Twilight 5:17 AM MDT 8:52 PM MDT
Moon 11:29 AM MDT (3/19) 2:20 AM MDT (3/19)
Length of Visible Light 13h 09m
Length of Day
12h 07m
Waxing Crescent, 50% of the Moon is Illuminated
Mar 19
Waxing Crescent
Mar 27
Full
Apr 2
Last Quarter
Apr 10
New
Apr 18
First Quarter

Hourly Weather History & Observations

Time (MDT) Temp. Windchill Dew Point Humidity Pressure Visibility Wind Dir Wind Speed Gust Speed Precip Events Conditions
12:15 AM 19.4 °F 14.3 °F 14.0 °F 80% 29.93 in 10.0 mi SW 3.5 mph - N/A   Scattered Clouds
12:35 AM 17.6 °F 12.3 °F 12.2 °F 79% 29.94 in 10.0 mi WNW 3.5 mph - N/A   Clear
1:35 AM 15.8 °F 8.6 °F 12.2 °F 86% 29.97 in 10.0 mi North 4.6 mph - N/A   Clear
1:55 AM 15.8 °F 8.6 °F 10.4 °F 79% 29.98 in 10.0 mi NW 4.6 mph - N/A   Clear
2:15 AM 15.8 °F 2.1 °F 10.4 °F 79% 29.98 in 10.0 mi NW 12.7 mph - N/A   Partly Cloudy
2:35 AM 15.8 °F 7.2 °F 12.2 °F 86% 29.99 in 10.0 mi NNW 5.8 mph - N/A   Mostly Cloudy
2:55 AM 15.8 °F 10.2 °F 12.2 °F 86% 30.00 in 10.0 mi NNW 3.5 mph - N/A   Overcast
3:15 AM 17.6 °F 3.7 °F 12.2 °F 79% 30.01 in 10.0 mi NW 13.8 mph - N/A   Overcast
3:55 AM 15.8 °F 0.3 °F 8.6 °F 73% 30.04 in 10.0 mi NW 16.1 mph 19.6 mph N/A   Overcast
4:15 AM 12.2 °F -5.3 °F 6.8 °F 79% 30.04 in 10.0 mi NW 18.4 mph - N/A   Scattered Clouds
4:55 AM 12.2 °F -5.3 °F 6.8 °F 79% 30.06 in 10.0 mi NW 18.4 mph 25.3 mph N/A   Partly Cloudy
5:15 AM 12.2 °F -5.8 °F 6.8 °F 79% 30.08 in 10.0 mi NW 19.6 mph - N/A   Partly Cloudy
5:35 AM 12.2 °F -5.8 °F 6.8 °F 79% 30.09 in 10.0 mi WNW 19.6 mph 25.3 mph N/A   Clear
5:55 AM 10.4 °F -7.7 °F 6.8 °F 85% 30.11 in 10.0 mi NW 18.4 mph 23.0 mph N/A   Clear
6:15 AM 10.4 °F -8.2 °F 6.8 °F 85% 30.13 in 10.0 mi NW 19.6 mph - N/A   Clear
6:35 AM 10.4 °F -7.2 °F 3.2 °F 73% 30.15 in 10.0 mi WNW 17.3 mph - N/A   Clear
6:55 AM 8.6 °F -10.5 °F 3.2 °F 79% 30.16 in 10.0 mi NW 19.6 mph 24.2 mph N/A   Clear
7:15 AM 8.6 °F -8.3 °F 1.4 °F 73% 30.19 in 10.0 mi NW 15.0 mph - N/A   Clear
7:35 AM 8.6 °F -8.9 °F 3.2 °F 79% 30.21 in 10.0 mi NW 16.1 mph - N/A   Clear
7:55 AM 6.8 °F -11.8 °F -0.4 °F 72% 30.22 in 10.0 mi NW 17.3 mph - N/A   Clear
8:15 AM 6.8 °F -10.7 °F 1.4 °F 79% 30.24 in 10.0 mi WNW 15.0 mph - N/A   Clear
8:35 AM 6.8 °F -10.0 °F 1.4 °F 79% 30.25 in 10.0 mi NW 13.8 mph - N/A   Clear
8:55 AM 8.6 °F -8.9 °F 1.4 °F 73% 30.27 in 10.0 mi NW 16.1 mph - N/A   Clear
9:15 AM 8.6 °F -7.7 °F 1.4 °F 73% 30.28 in 10.0 mi NNW 13.8 mph - N/A   Clear
9:35 AM 8.6 °F -5.5 °F 3.2 °F 79% 30.29 in 10.0 mi NW 10.4 mph - N/A   Clear
10:15 AM 10.4 °F -4.8 °F 5.0 °F 79% 30.31 in 10.0 mi NNW 12.7 mph - N/A   Clear
10:35 AM 10.4 °F -4.8 °F 3.2 °F 73% 30.32 in 10.0 mi NW 12.7 mph - N/A   Clear
10:55 AM 10.4 °F -3.3 °F 3.2 °F 73% 30.33 in 10.0 mi NNW 10.4 mph - N/A   Clear
11:15 AM 10.4 °F -5.4 °F 3.2 °F 73% 30.34 in 10.0 mi NW 13.8 mph - N/A   Clear
11:35 AM 12.2 °F -3.7 °F 3.2 °F 67% 30.34 in 10.0 mi NW 15.0 mph - N/A   Clear
11:55 AM 12.2 °F -3.1 °F 3.2 °F 67% 30.35 in 10.0 mi WNW 13.8 mph - N/A   Clear
12:15 PM 12.2 °F -3.1 °F 5.0 °F 73% 30.36 in 10.0 mi NW 13.8 mph 18.4 mph N/A   Clear
12:35 PM 14.0 °F -0.2 °F 6.8 °F 73% 30.36 in 10.0 mi NW 12.7 mph - N/A   Clear
12:55 PM 15.8 °F 0.9 °F 6.8 °F 68% 30.36 in 10.0 mi NW 15.0 mph - N/A   Clear
1:35 PM 15.8 °F 2.1 °F 5.0 °F 62% 30.37 in 10.0 mi WNW 12.7 mph 21.9 mph N/A   Clear
1:55 PM 15.8 °F 0.9 °F 5.0 °F 62% 30.37 in 10.0 mi WNW 15.0 mph - N/A   Clear
2:15 PM 15.8 °F 2.1 °F 5.0 °F 62% 30.38 in 10.0 mi WNW 12.7 mph 17.3 mph N/A   Clear
2:35 PM 17.6 °F 3.7 °F 6.8 °F 63% 30.38 in 10.0 mi NNW 13.8 mph - N/A   Clear
2:55 PM 17.6 °F 3.7 °F 6.8 °F 63% 30.39 in 10.0 mi NW 13.8 mph - N/A   Clear
3:35 PM 17.6 °F 6.4 °F 6.8 °F 63% 30.40 in 10.0 mi NW 9.2 mph - N/A   Clear
3:55 PM 17.6 °F 7.3 °F 6.8 °F 63% 30.40 in 10.0 mi WNW 8.1 mph - N/A   Clear
4:15 PM 17.6 °F 8.2 °F 6.8 °F 63% 30.40 in 10.0 mi WNW 6.9 mph - N/A   Clear
5:15 PM 17.6 °F 9.3 °F 3.2 °F 53% 30.41 in 10.0 mi NNW 5.8 mph - N/A   Clear
5:35 PM 17.6 °F 9.3 °F 5.0 °F 58% 30.40 in 10.0 mi WNW 5.8 mph - N/A   Clear
6:15 PM 17.6 °F 10.7 °F 3.2 °F 53% 30.40 in 10.0 mi West 4.6 mph - N/A   Clear
6:35 PM 17.6 °F 8.2 °F 5.0 °F 58% 30.40 in 10.0 mi NW 6.9 mph - N/A   Clear
6:55 PM 15.8 °F 7.2 °F 6.8 °F 68% 30.40 in 10.0 mi WNW 5.8 mph - N/A   Clear
7:15 PM 15.8 °F 10.2 °F 6.8 °F 68% 30.40 in 10.0 mi WSW 3.5 mph - N/A   Clear
7:35 PM 15.8 °F - 6.8 °F 68% 30.39 in 10.0 mi Calm Calm - N/A   Clear
7:55 PM 12.2 °F - 6.8 °F 79% 30.39 in 10.0 mi Calm Calm - N/A   Clear
8:15 PM 12.2 °F - 8.6 °F 85% 30.39 in 10.0 mi Calm Calm - N/A   Clear
8:35 PM 12.2 °F - 5.0 °F 73% 30.39 in 10.0 mi Calm Calm - N/A   Clear
8:55 PM 10.4 °F - 3.2 °F 73% 30.39 in 10.0 mi Calm Calm - N/A   Clear
9:15 PM 10.4 °F - 3.2 °F 73% 30.39 in 10.0 mi Calm Calm - N/A   Clear
9:35 PM 10.4 °F - 5.0 °F 79% 30.39 in 10.0 mi Calm Calm - N/A   Clear
9:55 PM 10.4 °F - 6.8 °F 85% 30.39 in 10.0 mi Calm Calm - N/A   Clear
10:15 PM 10.4 °F - 6.8 °F 85% 30.38 in 10.0 mi Calm Calm - N/A   Clear
10:35 PM 10.4 °F 4.0 °F 1.4 °F 67% 30.38 in 10.0 mi SW 3.5 mph - N/A   Clear
10:55 PM 10.4 °F 4.0 °F 6.8 °F 85% 30.38 in 10.0 mi SW 3.5 mph - N/A   Clear
11:15 PM 10.4 °F - 6.8 °F 85% 30.37 in 10.0 mi Calm Calm - N/A   Clear
11:35 PM 8.6 °F - 5.0 °F 85% 30.37 in 10.0 mi Calm Calm - N/A   Clear
11:55 PM 10.4 °F - 6.8 °F 85% 30.37 in 10.0 mi Calm Calm - N/A   Clear